Location: Stony Creek
(40.9500°S, 175.8500°E)
Time: 10:14:59
(UTC+00:00)

Cosmos 1821 Rocket - Pass Details

Date: 15 May 2026
Orbit: 944 x 1004 km, 82.9° (Epoch: 10 June)

Event Time Altitude Azimuth Distance (km) Brightness Sun altitude
Rises 17:39:08 0° 349° (N) 3,605 7.0 -18.6°
Reaches altitude 10° 17:41:37 10° 347° (NNW) 2,665 6.3 -18.1°
Maximum altitude 17:47:42 74° 262° (W) 991 3.8 -17.0°
Drops below altitude 10° 17:53:53 10° 176° (S) 2,703 6.2 -15.8°
Sets 17:56:25 0° 174° (S) 3,660 7.0 -15.4°
